QPF
0.00 0.01 0.01 0.01 0.00 0.00 0.00 0.00 0.00 0.00 0.00 0.00 0.00 0.00 0.00 0.00 0.00 0.00 0.00 0.00 0.00 0.00 0.00 0.00 0.00 0.00 0.00 0.00 0.00 0.00 0.00 0.00 0.00 0.00 0.00 0.00 0.00 0.00 0.00 0.00 0.00 0.00 0.00 0.00 0.00
0.00 0.00 0.01 0.01 0.00 0.00 0.00 0.00 0.00 0.00 0.00 0.00 0.00 0.00 0.00 0.00 0.00 0.00 0.00 0.00 0.00 0.00 0.00 0.00 0.00 0.00 0.00 0.00 0.00 0.00 0.00 0.00 0.00 0.00 0.00 0.00 0.00 0.00 0.00 0.00 0.00 0.00 0.00 0.00 0.00
0.00 0.00 0.01 0.01 0.01 0.00 0.00 0.00 0.00 0.00 0.00 0.00 0.00 0.00 0.00 0.00 0.00 0.00 0.00 0.00 0.00 0.00 0.00 0.00 0.00 0.00 0.00 0.00 0.00 0.00 0.00 0.00 0.00 0.00 0.00 0.00 0.00 0.00 0.00 0.00 0.00 0.00 0.00 0.00 0.00
0.00 0.00 0.01 0.01 0.01 0.00 0.00 0.00 0.00 0.00 0.00 0.00 0.00 0.00 0.00 0.00 0.00 0.00 0.00 0.00 0.00 0.00 0.00 0.00 0.00 0.00 0.00 0.00 0.00 0.00 0.00 0.00 0.00 0.00 0.00 0.00 0.00 0.00 0.00 0.00 0.00 0.00 0.00 0.00 0.00
0.00 0.00 0.00 0.00 0.01 0.01 0.00 0.00 0.00 0.00 0.00 0.00 0.00 0.00 0.00 0.00 0.00 0.00 0.00 0.00 0.00 0.00 0.00 0.00 0.00 0.00 0.00 0.00 0.00 0.00 0.00 0.00 0.00 0.00 0.00 0.00 0.00 0.00 0.00 0.00 0.00 0.00 0.00 0.00 0.00
0.00 0.00 0.00 0.00 0.01 0.01 0.00 0.00 0.00 0.00 0.00 0.00 0.00 0.00 0.00 0.00 0.00 0.00 0.00 0.00 0.00 0.00 0.00 0.00 0.00 0.00 0.00 0.00 0.00 0.00 0.00 0.00 0.00 0.00 0.00 0.00 0.00 0.00 0.00 0.00 0.00 0.00 0.00 0.00 0.00
0.00 0.00 0.00 0.00 0.00 0.00 0.00 0.00 0.00 0.00 0.00 0.00 0.00 0.00 0.00 0.00 0.00 0.00 0.00 0.00 0.00 0.00 0.00 0.00 0.00 0.00 0.00 0.00 0.00 0.00 0.00 0.00 0.00 0.00 0.00 0.00 0.00 0.00 0.00 0.00 0.00 0.00 0.00 0.00 0.00
0.00 0.00 0.00 0.00 0.00 0.00 0.00 0.00 0.00 0.00 0.00 0.00 0.00 0.00 0.00 0.00 0.00 0.00 0.00 0.00 0.00 0.00 0.00 0.00 0.00 0.00 0.00 0.00 0.00 0.00 0.00 0.00 0.00 0.00 0.00 0.00 0.00 0.00 0.00 0.00 0.00 0.00 0.00 0.00 0.00
0.00 0.00 0.00 0.00 0.00 0.00 0.00 0.00 0.00 0.00 0.00 0.00 0.00 0.00 0.00 0.00 0.00 0.00 0.00 0.00 0.00 0.00 0.00 0.00 0.00 0.00 0.00 0.00 0.00 0.00 0.00 0.00 0.00 0.00 0.00 0.00 0.00 0.00 0.00 0.00 0.00 0.00 0.00 0.00 0.00
0.00 0.00 0.00 0.00 0.00 0.00 0.00 0.00 0.00 0.00 0.00 0.00 0.00 0.00 0.00 0.00 0.00 0.00 0.00 0.00 0.00 0.00 0.00 0.00 0.00 0.00 0.00 0.00 0.00 0.00 0.00 0.00 0.00 0.00 0.00 0.00 0.00 0.00 0.00 0.00 0.00 0.00 0.00 0.00 0.00
0.00 0.00 0.00 0.00 0.00 0.00 0.00 0.00 0.00 0.00 0.00 0.00 0.00 0.00 0.00 0.00 0.00 0.00 0.00 0.00 0.00 0.00 0.00 0.00 0.00 0.00 0.00 0.00 0.00 0.00 0.00 0.00 0.00 0.00 0.00 0.00 0.00 0.00 0.00 0.00 0.00 0.00 0.00 0.00 0.00
0.01 0.01 0.00 0.00 0.00 0.00 0.00 0.00 0.00 0.00 0.00 0.00 0.00 0.00 0.00 0.00 0.00 0.00 0.00 0.00 0.00 0.00 0.00 0.00 0.00 0.00 0.00 0.00 0.00 0.00 0.00 0.00 0.00 0.00 0.00 0.00 0.00 0.00 0.00 0.00 0.00 0.00 0.00 0.00 0.00
0.02 0.01 0.00 0.00 0.00 0.01 0.00 0.00 0.00 0.00 0.00 0.00 0.00 0.00 0.00 0.00 0.00 0.00 0.00 0.00 0.00 0.00 0.00 0.00 0.00 0.00 0.00 0.00 0.00 0.00 0.00 0.00 0.00 0.00 0.00 0.00 0.00 0.00 0.00 0.00 0.00 0.00 0.00 0.00 0.00
0.03 0.03 0.01 0.01 0.01 0.00 0.00 0.00 0.00 0.00 0.00 0.00 0.00 0.00 0.00 0.00 0.00 0.00 0.00 0.00 0.00 0.00 0.00 0.00 0.00 0.00 0.00 0.00 0.00 0.00 0.00 0.00 0.00 0.00 0.00 0.00 0.00 0.00 0.00 0.00 0.00 0.00 0.00 0.00 0.00
0.00 0.03 0.02 0.01 0.00 0.00 0.00 0.00 0.00 0.00 0.00 0.00 0.00 0.00 0.00 0.00 0.00 0.00 0.00 0.00 0.00 0.00 0.00 0.00 0.00 0.00 0.00 0.00 0.00 0.00 0.00 0.00 0.00 0.00 0.00 0.00 0.00 0.00 0.00 0.00 0.00 0.00 0.00 0.00 0.00
0.00 0.01 0.02 0.03 0.02 0.00 0.00 0.00 0.00 0.00 0.00 0.00 0.00 0.00 0.00 0.00 0.00 0.00 0.00 0.00 0.00 0.00 0.00 0.00 0.00 0.00 0.00 0.00 0.00 0.00 0.00 0.00 0.00 0.00 0.00 0.00 0.00 0.00 0.00 0.00 0.00 0.00 0.00 0.00 0.00
0.01 0.02 0.02 0.02 0.02 0.00 0.00 0.00 0.00 0.00 0.00 0.00 0.00 0.00 0.00 0.00 0.00 0.00 0.00 0.00 0.00 0.00 0.00 0.00 0.00 0.00 0.00 0.00 0.00 0.00 0.00 0.00 0.00 0.00 0.00 0.00 0.00 0.00 0.00 0.00 0.00 0.00 0.00 0.00 0.00
0.00 0.02 0.04 0.02 0.02 0.00 0.00 0.01 0.00 0.00 0.00 0.00 0.00 0.00 0.00 0.00 0.00 0.00 0.00 0.00 0.00 0.00 0.00 0.00 0.00 0.00 0.00 0.00 0.00 0.00 0.00 0.00 0.00 0.00 0.00 0.00 0.00 0.00 0.00 0.00 0.00 0.00 0.00 0.00 0.00
0.00 0.00 0.02 0.04 0.06 0.02 0.02 0.01 0.00 0.00 0.00 0.00 0.00 0.00 0.00 0.00 0.00 0.00 0.00 0.00 0.00 0.00 0.00 0.00 0.00 0.00 0.00 0.00 0.00 0.00 0.00 0.00 0.00 0.00 0.00 0.00 0.00 0.00 0.00 0.00 0.00 0.00 0.00 0.00 0.00
0.00 0.00 0.00 0.01 0.06 0.07 0.05 0.00 0.00 0.00 0.00 0.00 0.00 0.00 0.00 0.00 0.00 0.00 0.00 0.00 0.00 0.00 0.00 0.00 0.00 0.00 0.00 0.00 0.00 0.00 0.00 0.00 0.00 0.00 0.00 0.00 0.00 0.00 0.00 0.00 0.00 0.00 0.00 0.00 0.00
0.00 0.00 0.00 0.00 0.01 0.09 0.03 0.00 0.00 0.00 0.00 0.00 0.00 0.00 0.00 0.00 0.00 0.00 0.00 0.00 0.00 0.00 0.00 0.00 0.00 0.00 0.00 0.00 0.00 0.00 0.00 0.00 0.00 0.00 0.00 0.00 0.00 0.00 0.00 0.00 0.00 0.00 0.00 0.00 0.00
0.00 0.00 0.00 0.00 0.00 0.00 0.00 0.00 0.00 0.00 0.00 0.00 0.00 0.00 0.00 0.00 0.00 0.00 0.00 0.00 0.00 0.00 0.00 0.00 0.00 0.00 0.00 0.00 0.00 0.00 0.00 0.00 0.00 0.00 0.00 0.00 0.00 0.00 0.00 0.00 0.00 0.00 0.00 0.00 0.00
0.00 0.00 0.00 0.01 0.00 0.00 0.00 0.00 0.00 0.00 0.00 0.00 0.00 0.00 0.00 0.00 0.00 0.00 0.00 0.00 0.00 0.00 0.00 0.00 0.00 0.00 0.00 0.00 0.00 0.00 0.00 0.00 0.00 0.00 0.00 0.00 0.00 0.00 0.00 0.00 0.00 0.00 0.00 0.00 0.00
0.00 0.00 0.00 0.01 0.00 0.00 0.00 0.00 0.00 0.00 0.00 0.00 0.00 0.00 0.00 0.00 0.00 0.00 0.00 0.00 0.00 0.00 0.00 0.00 0.00 0.00 0.00 0.00 0.00 0.00 0.00 0.00 0.00 0.00 0.00 0.00 0.00 0.00 0.00 0.00 0.00 0.00 0.00 0.00 0.00
0.00 0.00 0.00 0.00 0.00 0.00 0.00 0.00 0.00 0.00 0.00 0.00 0.00 0.00 0.00 0.00 0.00 0.00 0.00 0.00 0.00 0.00 0.00 0.00 0.00 0.00 0.00 0.00 0.00 0.00 0.00 0.00 0.00 0.00 0.00 0.00 0.00 0.00 0.00 0.00 0.00 0.00 0.00 0.00 0.00
0.00 0.00 0.00 0.00 0.00 0.00 0.00 0.00 0.00 0.00 0.00 0.00 0.00 0.00 0.00 0.00 0.00 0.00 0.00 0.00 0.00 0.00 0.00 0.00 0.00 0.00 0.00 0.00 0.00 0.00 0.00 0.00 0.00 0.00 0.00 0.00 0.00 0.00 0.00 0.00 0.00 0.00 0.00 0.00 0.00
0.00 0.00 0.00 0.00 0.00 0.00 0.00 0.00 0.00 0.00 0.00 0.00 0.00 0.00 0.00 0.00 0.00 0.00 0.00 0.00 0.00 0.00 0.00 0.00 0.00 0.00 0.00 0.00 0.00 0.00 0.00 0.00 0.00 0.00 0.00 0.00 0.00 0.00 0.00 0.00 0.00 0.00 0.00 0.00 0.00
MSLP
1009.65 1009.85 1010.55 1010.77 1010.77 1011.16 1011.49 1011.92 1012.19 1012.69 1013.05 1013.51 1013.90 1014.11 1014.46 1014.62 1015.17 1015.27 1013.75 1012.70 1012.72 1013.13 1012.99 1013.30 1012.62 1012.27 1012.18 1011.86 1011.83 1011.71 1010.57 1009.63 1009.58 1009.82 1010.26 1011.50 1011.74 1012.54 1012.81 1012.74 1013.12 1013.60 1013.57 1013.97 1015.18
1009.41 1009.54 1010.08 1010.48 1010.67 1011.03 1011.38 1011.81 1012.20 1012.67 1012.98 1013.11 1013.55 1013.99 1014.43 1015.07 1015.29 1013.74 1011.89 1011.86 1012.24 1012.62 1012.79 1012.82 1012.21 1012.29 1011.79 1011.62 1011.79 1011.36 1010.38 1009.72 1009.95 1009.98 1010.55 1011.52 1011.73 1012.31 1012.64 1012.76 1013.12 1013.86 1014.75 1014.78 1015.44
1008.99 1009.42 1009.87 1010.14 1010.37 1010.74 1011.34 1011.86 1012.12 1012.41 1012.76 1013.19 1013.61 1014.01 1014.78 1014.84 1013.87 1011.46 1010.91 1011.38 1011.77 1012.69 1012.57 1012.53 1011.97 1012.16 1011.75 1011.82 1011.64 1011.11 1010.40 1010.28 1010.87 1010.99 1010.96 1011.57 1011.83 1012.12 1012.17 1012.39 1012.36 1013.00 1014.20 1014.98 1015.31
1008.83 1009.12 1009.67 1010.01 1010.27 1010.71 1011.28 1011.92 1012.10 1012.31 1012.80 1013.07 1013.18 1013.79 1014.23 1013.88 1012.32 1010.96 1011.01 1011.33 1012.05 1012.71 1012.67 1012.53 1012.18 1011.90 1011.46 1011.53 1011.40 1011.22 1011.16 1011.00 1011.64 1012.07 1011.99 1012.03 1012.09 1012.54 1012.40 1012.70 1012.93 1013.16 1013.64 1014.53 1015.00
1008.62 1008.88 1009.18 1009.55 1009.84 1010.67 1011.11 1011.54 1011.71 1012.23 1012.62 1012.78 1013.08 1013.70 1013.90 1012.82 1011.54 1011.14 1011.20 1011.97 1012.20 1012.63 1012.27 1011.99 1011.93 1011.63 1011.34 1011.26 1011.58 1011.14 1011.32 1011.81 1012.21 1012.67 1012.67 1012.83 1012.71 1012.61 1012.74 1013.00 1013.58 1013.94 1013.97 1014.26 1014.62
1008.22 1008.78 1009.05 1009.59 1010.21 1010.55 1010.94 1011.50 1011.74 1012.12 1012.61 1012.75 1013.10 1013.58 1013.30 1012.02 1011.40 1011.11 1011.45 1011.96 1011.74 1012.23 1011.84 1011.74 1011.61 1011.67 1011.32 1011.28 1011.24 1011.16 1011.46 1012.00 1012.43 1013.00 1013.15 1013.27 1013.16 1013.19 1012.77 1013.24 1013.52 1014.00 1014.07 1014.09 1014.32
1007.67 1008.38 1008.71 1009.66 1009.95 1010.37 1010.98 1011.32 1011.69 1012.19 1012.59 1012.59 1012.97 1013.32 1012.33 1011.25 1010.91 1011.24 1011.79 1011.65 1011.70 1011.79 1011.57 1011.55 1011.75 1011.96 1011.63 1011.71 1011.89 1011.49 1011.73 1012.17 1012.85 1013.16 1013.37 1013.64 1013.32 1012.84 1012.93 1013.37 1013.47 1013.72 1013.72 1014.05 1014.04
1007.39 1007.98 1008.63 1009.44 1009.66 1010.11 1011.03 1011.49 1011.81 1012.34 1012.46 1012.79 1013.06 1013.01 1011.52 1011.35 1011.02 1011.62 1011.60 1011.76 1012.00 1012.09 1011.73 1011.77 1012.05 1012.26 1012.23 1012.21 1011.82 1011.52 1011.37 1011.81 1013.08 1013.50 1013.86 1013.73 1012.44 1012.02 1013.00 1013.25 1013.11 1013.19 1013.24 1013.90 1014.24
1006.95 1007.81 1008.37 1009.05 1009.95 1010.59 1011.30 1011.58 1011.90 1012.58 1012.52 1012.78 1012.93 1012.50 1011.43 1011.52 1011.45 1011.24 1011.51 1011.36 1011.86 1012.18 1012.09 1012.07 1011.94 1012.16 1012.61 1011.83 1011.44 1011.24 1010.85 1011.50 1013.11 1013.72 1013.79 1013.58 1012.61 1013.01 1013.29 1013.18 1012.84 1012.84 1013.11 1013.54 1013.88
1006.59 1007.50 1008.07 1008.98 1009.93 1010.61 1011.13 1011.63 1012.17 1012.22 1012.24 1012.49 1012.15 1012.40 1011.40 1010.85 1010.95 1011.01 1011.57 1011.56 1011.61 1012.11 1012.05 1011.91 1011.76 1011.86 1011.73 1010.98 1009.78 1010.35 1010.78 1011.71 1012.48 1013.72 1013.98 1013.56 1012.98 1012.78 1013.27 1013.25 1012.98 1012.86 1013.14 1013.51 1013.78
1006.26 1007.12 1007.95 1008.51 1009.63 1010.25 1011.18 1011.59 1011.56 1011.49 1011.11 1010.44 1010.35 1010.29 1010.09 1010.94 1010.90 1011.05 1011.30 1011.53 1011.31 1011.51 1011.29 1011.53 1011.42 1010.87 1010.84 1010.52 1010.05 1010.02 1010.89 1011.65 1012.52 1013.81 1013.88 1013.34 1012.75 1012.36 1012.50 1013.12 1013.14 1013.11 1013.20 1013.60 1013.95
1006.03 1006.84 1007.82 1008.86 1009.81 1010.19 1010.13 1008.70 1008.34 1007.99 1010.34 1010.74 1010.43 1010.58 1010.80 1010.74 1010.89 1011.22 1011.05 1011.00 1010.93 1010.92 1011.09 1011.98 1010.84 1010.91 1011.06 1011.01 1010.89 1010.67 1011.33 1011.84 1013.54 1014.07 1014.20 1013.53 1012.71 1012.35 1012.57 1013.12 1013.44 1013.76 1014.00 1014.26 1014.53
1005.76 1006.58 1007.74 1008.82 1009.60 1010.33 1009.36 1008.40 1008.48 1008.38 1008.90 1010.19 1010.42 1010.39 1010.82 1011.07 1010.61 1010.76 1010.79 1010.53 1010.59 1010.74 1011.04 1011.15 1011.07 1011.42 1011.56 1011.93 1011.54 1011.56 1011.42 1011.78 1012.61 1014.00 1014.31 1013.79 1012.38 1011.83 1012.94 1013.59 1014.19 1014.43 1014.81 1015.05 1015.24
1005.64 1006.56 1007.69 1008.92 1010.44 1009.39 1008.86 1008.57 1009.03 1009.05 1008.48 1009.53 1010.24 1010.10 1010.57 1010.63 1011.06 1011.02 1010.78 1010.63 1010.54 1010.81 1011.42 1011.67 1012.19 1011.91 1012.15 1011.87 1011.84 1012.25 1012.46 1012.43 1013.06 1013.60 1013.61 1013.67 1011.98 1011.35 1012.01 1013.24 1014.04 1014.51 1014.81 1015.16 1015.75
1005.55 1006.44 1007.57 1008.37 1007.41 1008.07 1008.13 1008.79 1009.13 1008.84 1008.37 1008.19 1009.46 1010.24 1010.25 1010.49 1010.56 1011.40 1011.52 1010.60 1010.27 1010.48 1011.25 1011.85 1012.21 1012.38 1012.37 1011.92 1012.45 1012.95 1013.20 1013.15 1013.40 1013.69 1014.14 1013.75 1013.48 1011.32 1012.29 1012.96 1013.84 1014.51 1015.15 1015.72 1016.11
1006.44 1007.12 1007.49 1008.17 1007.61 1008.18 1008.31 1009.08 1009.10 1008.99 1007.80 1008.39 1009.00 1009.59 1010.06 1010.47 1010.68 1011.24 1011.05 1010.85 1011.14 1011.23 1011.52 1012.47 1012.98 1012.60 1012.58 1013.03 1013.04 1013.67 1013.84 1014.21 1014.27 1014.44 1014.32 1013.27 1013.56 1011.48 1011.87 1012.25 1013.55 1014.84 1015.23 1016.34 1016.44
1007.27 1007.39 1007.78 1007.91 1007.99 1008.34 1008.70 1008.78 1009.01 1007.82 1006.81 1008.11 1008.36 1008.52 1008.40 1009.37 1010.27 1010.26 1010.48 1010.46 1010.11 1010.72 1011.19 1012.31 1013.03 1013.45 1013.37 1013.68 1014.06 1013.39 1013.43 1014.10 1014.71 1015.10 1014.43 1014.44 1014.31 1011.98 1012.37 1012.88 1013.58 1014.64 1015.49 1016.43 1016.77
1007.78 1007.47 1008.02 1008.48 1008.75 1008.63 1008.55 1008.67 1007.80 1005.71 1006.06 1006.79 1007.26 1008.06 1008.29 1008.98 1009.82 1009.95 1010.21 1010.25 1009.79 1009.47 1009.95 1011.34 1013.06 1013.17 1013.14 1012.68 1012.82 1013.07 1012.87 1012.87 1013.94 1014.94 1014.79 1015.63 1013.88 1012.41 1012.88 1013.71 1013.96 1014.95 1015.92 1016.52 1016.99
1008.09 1008.02 1008.58 1008.98 1008.81 1008.75 1008.72 1008.01 1004.93 1004.37 1005.23 1006.47 1007.42 1007.87 1008.22 1008.73 1009.06 1009.61 1009.35 1008.81 1008.71 1009.12 1008.86 1010.24 1011.94 1013.10 1013.31 1013.21 1012.84 1013.50 1013.19 1013.30 1014.35 1015.82 1015.07 1014.00 1013.01 1013.26 1013.67 1014.10 1014.38 1015.26 1016.29 1016.77 1017.22
1008.23 1008.74 1009.36 1009.10 1008.88 1009.07 1008.61 1005.91 1005.28 1004.84 1004.98 1005.68 1005.80 1006.43 1006.89 1007.80 1008.63 1008.58 1008.83 1008.19 1008.52 1008.87 1009.27 1009.74 1011.72 1013.73 1014.11 1013.74 1013.60 1012.90 1012.72 1013.58 1013.58 1014.33 1013.97 1013.09 1012.48 1011.73 1013.05 1013.50 1014.31 1015.07 1015.93 1016.74 1017.50
1009.00 1009.35 1009.41 1009.36 1008.99 1008.87 1006.89 1005.20 1005.13 1005.42 1005.23 1005.26 1005.32 1005.90 1006.11 1006.93 1007.66 1008.17 1007.81 1008.05 1008.26 1009.08 1009.90 1010.07 1010.93 1014.20 1014.19 1013.42 1012.65 1013.42 1012.75 1012.59 1012.39 1012.92 1012.73 1012.39 1011.07 1010.30 1010.79 1011.97 1013.08 1014.32 1015.38 1016.48 1017.36
1009.22 1009.78 1009.89 1009.18 1009.22 1008.98 1007.75 1006.04 1005.36 1005.78 1006.11 1005.91 1005.86 1005.91 1005.97 1006.55 1007.29 1007.77 1007.44 1007.66 1007.91 1008.69 1009.72 1010.72 1011.56 1013.10 1013.11 1013.55 1013.39 1012.55 1011.94 1012.08 1012.02 1012.22 1012.51 1012.25 1010.71 1010.77 1010.48 1011.53 1012.90 1013.97 1015.15 1016.55 1017.52
1009.15 1009.59 1010.21 1009.82 1009.92 1009.45 1008.80 1007.95 1006.77 1006.17 1006.22 1006.33 1006.16 1006.14 1006.45 1006.66 1007.45 1007.47 1008.03 1009.03 1008.94 1009.23 1009.32 1010.37 1011.59 1012.93 1013.43 1013.62 1013.49 1012.53 1011.81 1011.26 1011.41 1012.14 1011.95 1012.11 1010.74 1011.15 1010.89 1011.42 1012.68 1013.73 1015.19 1016.45 1017.55
1009.17 1009.31 1009.92 1010.14 1010.39 1009.91 1009.22 1008.53 1007.68 1007.01 1006.71 1006.72 1006.60 1006.87 1006.90 1006.91 1006.89 1007.64 1008.64 1009.78 1009.98 1009.95 1010.03 1010.31 1010.78 1010.87 1010.95 1010.19 1010.79 1011.86 1011.29 1011.46 1011.26 1011.46 1010.73 1010.52 1009.89 1010.90 1011.03 1011.55 1012.63 1013.84 1015.07 1016.32 1017.43
1009.19 1009.41 1010.00 1009.78 1009.97 1010.20 1009.96 1009.41 1008.45 1008.03 1007.58 1007.21 1007.19 1006.90 1006.75 1006.98 1007.24 1007.69 1008.62 1010.15 1010.76 1010.52 1010.55 1010.71 1010.59 1011.04 1010.48 1010.41 1010.26 1010.19 1010.81 1011.21 1011.07 1009.78 1009.95 1008.67 1009.06 1009.22 1010.48 1011.24 1011.81 1013.01 1014.88 1015.98 1017.07
1009.44 1009.86 1010.11 1010.16 1010.14 1010.28 1010.25 1009.65 1009.20 1008.90 1008.78 1007.99 1007.33 1007.24 1007.49 1006.99 1006.73 1007.63 1008.64 1009.39 1009.68 1011.27 1011.06 1011.16 1011.11 1011.17 1011.36 1011.21 1011.33 1010.91 1010.66 1010.42 1010.09 1009.37 1009.35 1008.32 1008.08 1008.28 1009.49 1011.08 1012.22 1013.10 1014.34 1015.42 1016.50
1010.08 1010.15 1009.92 1010.17 1009.97 1009.97 1009.78 1009.75 1009.65 1009.56 1010.00 1009.49 1008.64 1008.53 1008.68 1008.10 1008.07 1008.41 1008.62 1009.39 1009.68 1010.28 1011.00 1011.44 1011.67 1012.05 1012.34 1012.47 1012.30 1011.65 1009.06 1009.53 1009.29 1008.97 1008.16 1007.77 1006.62 1008.74 1009.71 1010.45 1011.28 1012.54 1013.46 1014.73 1016.05
Thickness
5566 5572 5578 5584 5592 5597 5603 5605 5608 5610 5615 5614 5616 5621 5623 5627 5627 5630 5642 5659 5663 5665 5675 5676 5688 5697 5704 5703 5709 5713 5704 5703 5711 5714 5720 5722 5718 5721 5726 5723 5725 5725 5728 5732 5727
5559 5567 5571 5578 5583 5590 5596 5600 5602 5604 5608 5613 5614 5617 5619 5618 5620 5634 5658 5663 5663 5667 5668 5673 5681 5690 5696 5700 5701 5702 5703 5712 5725 5730 5721 5718 5722 5720 5718 5719 5720 5718 5720 5728 5725
5555 5559 5563 5570 5578 5584 5589 5593 5597 5600 5605 5606 5607 5611 5609 5615 5625 5649 5663 5663 5664 5664 5670 5676 5684 5684 5688 5696 5699 5706 5703 5719 5716 5724 5728 5719 5720 5727 5723 5717 5729 5723 5720 5722 5723
5547 5554 5557 5562 5572 5575 5581 5585 5591 5595 5598 5600 5606 5606 5608 5616 5619 5652 5658 5660 5657 5659 5663 5667 5674 5676 5682 5682 5700 5695 5704 5713 5709 5709 5714 5713 5723 5714 5723 5722 5730 5732 5732 5726 5723
5541 5548 5555 5561 5568 5568 5575 5580 5589 5590 5593 5597 5600 5599 5605 5615 5627 5644 5650 5648 5652 5655 5660 5666 5668 5677 5677 5689 5691 5695 5700 5703 5705 5703 5708 5710 5710 5714 5715 5725 5724 5724 5728 5727 5726
5538 5540 5548 5554 5554 5564 5570 5574 5580 5584 5587 5591 5594 5594 5602 5608 5628 5638 5640 5641 5651 5653 5659 5666 5669 5679 5681 5686 5691 5699 5700 5699 5702 5699 5701 5701 5705 5707 5718 5721 5720 5718 5721 5728 5728
5537 5536 5544 5543 5552 5557 5564 5570 5574 5578 5581 5587 5589 5591 5601 5615 5627 5629 5632 5639 5647 5652 5655 5666 5671 5669 5679 5674 5684 5691 5684 5693 5692 5695 5696 5699 5696 5703 5717 5716 5715 5716 5722 5723 5729
5533 5536 5537 5540 5548 5555 5557 5561 5566 5569 5575 5579 5583 5587 5600 5614 5623 5622 5628 5633 5640 5646 5654 5662 5665 5663 5667 5674 5678 5678 5689 5679 5683 5687 5688 5694 5697 5717 5713 5712 5714 5719 5723 5719 5721
5533 5530 5534 5537 5540 5543 5547 5553 5558 5559 5569 5573 5579 5585 5596 5609 5613 5622 5626 5630 5634 5637 5647 5655 5659 5656 5655 5660 5663 5671 5673 5680 5672 5680 5684 5690 5696 5700 5704 5708 5713 5718 5721 5720 5723
5530 5528 5529 5530 5532 5538 5541 5547 5548 5556 5565 5570 5579 5578 5597 5606 5616 5621 5622 5627 5628 5628 5634 5643 5648 5647 5655 5661 5657 5662 5669 5674 5679 5674 5675 5682 5689 5701 5699 5702 5707 5715 5718 5717 5719
5526 5526 5525 5527 5528 5533 5534 5540 5549 5553 5568 5582 5589 5594 5601 5603 5613 5614 5620 5621 5628 5627 5627 5639 5636 5639 5654 5669 5680 5683 5675 5672 5679 5669 5673 5680 5687 5699 5708 5701 5703 5710 5715 5714 5715
5523 5523 5521 5519 5522 5528 5538 5559 5574 5584 5559 5569 5579 5586 5592 5601 5600 5605 5619 5616 5619 5619 5630 5623 5635 5653 5660 5660 5663 5672 5665 5667 5655 5657 5661 5673 5681 5695 5700 5698 5700 5700 5702 5704 5707
5519 5519 5516 5514 5516 5521 5541 5557 5567 5574 5567 5566 5572 5580 5583 5591 5599 5602 5614 5620 5618 5618 5622 5628 5640 5640 5642 5640 5648 5657 5662 5663 5666 5652 5656 5662 5677 5691 5687 5687 5687 5689 5691 5694 5697
5513 5512 5509 5507 5505 5524 5537 5551 5554 5562 5563 5562 5564 5575 5580 5589 5587 5598 5610 5613 5615 5611 5615 5622 5620 5631 5634 5639 5650 5637 5652 5657 5648 5653 5654 5658 5669 5687 5692 5684 5682 5684 5690 5692 5690
5506 5506 5505 5510 5526 5529 5541 5542 5546 5554 5537 5569 5563 5570 5576 5580 5591 5587 5598 5607 5610 5616 5617 5615 5614 5619 5625 5640 5642 5638 5641 5645 5646 5646 5642 5648 5647 5690 5679 5678 5680 5682 5682 5682 5684
5492 5496 5500 5504 5519 5523 5528 5529 5535 5530 5530 5549 5561 5562 5568 5574 5579 5583 5593 5601 5605 5602 5607 5600 5607 5622 5628 5625 5631 5626 5628 5627 5632 5632 5622 5654 5646 5679 5677 5686 5680 5674 5677 5671 5675
5480 5488 5493 5498 5511 5509 5513 5518 5513 5517 5559 5546 5557 5571 5584 5576 5573 5584 5586 5590 5598 5590 5593 5594 5597 5605 5613 5607 5612 5625 5626 5605 5602 5601 5616 5618 5624 5671 5672 5678 5677 5670 5668 5666 5667
5472 5481 5485 5488 5491 5497 5506 5507 5503 5552 5559 5561 5567 5568 5572 5574 5570 5578 5577 5580 5598 5610 5607 5596 5588 5600 5612 5621 5618 5620 5629 5617 5596 5603 5623 5591 5620 5660 5667 5664 5672 5665 5660 5659 5658
5463 5472 5475 5476 5483 5489 5498 5496 5540 5561 5563 5550 5555 5554 5560 5566 5570 5570 5583 5593 5602 5606 5609 5604 5599 5597 5607 5612 5622 5608 5608 5624 5594 5559 5604 5623 5642 5646 5645 5650 5657 5653 5648 5648 5647
5456 5460 5462 5469 5478 5484 5496 5526 5541 5552 5555 5555 5559 5566 5563 5567 5563 5574 5577 5598 5596 5603 5609 5610 5580 5580 5585 5598 5600 5613 5624 5599 5607 5582 5592 5618 5631 5660 5638 5645 5646 5645 5642 5640 5637
5444 5446 5454 5460 5469 5478 5502 5532 5541 5540 5547 5553 5560 5560 5572 5567 5572 5568 5584 5593 5600 5592 5593 5601 5597 5564 5578 5590 5605 5594 5599 5607 5617 5610 5606 5612 5636 5671 5661 5654 5648 5644 5642 5635 5630
5434 5442 5442 5456 5462 5455 5489 5522 5537 5530 5530 5543 5552 5559 5566 5570 5563 5570 5581 5595 5599 5595 5584 5584 5580 5566 5582 5576 5581 5600 5610 5608 5600 5594 5604 5600 5636 5643 5661 5653 5646 5641 5636 5627 5621
5426 5434 5432 5444 5457 5460 5462 5489 5512 5524 5529 5534 5542 5551 5556 5560 5554 5568 5573 5561 5570 5579 5583 5576 5557 5547 5553 5567 5569 5582 5600 5614 5619 5594 5579 5594 5631 5627 5643 5647 5641 5634 5624 5616 5610
5419 5430 5428 5435 5434 5446 5458 5472 5495 5515 5522 5526 5532 5536 5543 5549 5562 5556 5556 5549 5555 5565 5562 5572 5559 5573 5577 5605 5605 5580 5594 5596 5603 5584 5605 5609 5641 5616 5627 5631 5628 5620 5611 5604 5599
5410 5420 5420 5436 5440 5442 5445 5455 5473 5489 5506 5518 5520 5530 5540 5538 5546 5548 5555 5539 5541 5547 5554 5558 5553 5567 5588 5595 5593 5595 5588 5586 5584 5609 5599 5629 5623 5634 5621 5619 5620 5614 5603 5597 5593
5397 5403 5411 5418 5422 5431 5437 5455 5461 5465 5473 5504 5520 5527 5528 5537 5550 5544 5544 5545 5550 5536 5544 5543 5543 5563 5548 5566 5559 5563 5576 5582 5584 5599 5601 5619 5616 5640 5625 5614 5606 5605 5597 5591 5587
5378 5387 5402 5410 5417 5431 5442 5445 5452 5458 5457 5463 5492 5503 5507 5522 5529 5531 5535 5536 5542 5540 5537 5534 5531 5531 5543 5533 5537 5534 5574 5581 5588 5596 5607 5600 5634 5613 5608 5607 5605 5597 5592 5583 5576